Погода в Вишневце

Украина / Тернопольская область     49°53′34″N   25°45′12″E
темп.,
°C
ветер,
м/с
пор.,
м/с
влажн.,
%
обл.,
%
осадки,
мм/ч
давл.,
гПа
погр.,
м
18 мая, вт
вт1800:00+12зюз008499 0.0 100210
03:00+11ю11882 0.0 100210
06:00+10ююв11903 0.0 100010
09:00+15вюв117692 0.0 1000356
12:00+18з336347 1.0 10001144
15:00+18сз5569100 3.3 10001210
18:00+15сз698189 1.6 1000790
21:00+12сз7129383 1.9 1001538
19 мая, ср
ср1900:00+11зсз81394100 0.3 1002682
03:00+11зсз81398100 1.1 1004747
06:00+10зсз61197100 0.2 1005643
09:00+10зсз71197100 0.4 1007770
12:00+10зсз71196100 0.5 1009614
15:00+10сз71093100 0.8 1010593
18:00+13сз587787 0.1 1010984
21:00+10сз34900 0.1 101153
20 мая, чт
чт2000:00+8зсз229157 0.0 101117
03:00+7зсз22936 0.0 101124
06:00+7ссз239558 0.0 101144
09:00+11с3483100 0.0 1011406
12:00+15с556674 0.1 10101306
15:00+16ссв5662100 0.6 10101439
18:00+14ссв5877100 0.8 1011483
21:00+11ссв51187100 3.4 1012380
21 мая, пт
пт2100:00+11ссв41190100 1.4 1013392
03:00+10ссв3994100 2.4 1014360
06:00+9с3894100 0.6 1016305
09:00+11ссв4783100 0.7 1017437
12:00+16ссв566283 0.4 10161263
15:00+17ссв455659 0.6 10161614
18:00+17св44626 0.4 10161294
21:00+12всв22832 1.1 101714
22 мая, сб
сб2200:00+10ююв11870 0.0 101710
03:00+9ююв228976 0.0 101613
06:00+9ю2390100 0.0 101639
09:00+14ююв3577100 0.0 1016346
12:00+16ююв3465100 0.0 1015828
15:00+19юв56563 0.0 10131315
18:00+19юв56635 0.0 10121353
21:00+14ююв4118363 0.0 1011237